GUY6655 EGCC-EGLC

Flight info

Callsign GUY6655
Flight time N/A
Altitude 2500
Route EGCC TO EGLC
Aircraft D62/L-SDFGRY/D

Departure

Time 2026-04-30 22:32
Airport Manchester Airport (EGCC)

Arrival

Time N/A
Airport London City Airport (EGLC)
Time Latitude Longitude Altitude Speed Heading
2026-04-30 22:11 53.36243 -2.28385 211 ft 0 kts 224°
2026-04-30 22:23 53.36239 -2.28388 211 ft 3 kts 184°
2026-04-30 22:23 53.36226 -2.28361 211 ft 4 kts 118°
2026-04-30 22:23 53.36212 -2.28315 211 ft 6 kts 103°
2026-04-30 22:23 53.36202 -2.28204 211 ft 11 kts 95°
2026-04-30 22:24 53.36186 -2.28063 211 ft 13 kts 120°
2026-04-30 22:24 53.36124 -2.27939 211 ft 16 kts 133°
2026-04-30 22:24 53.36021 -2.27829 211 ft 18 kts 177°
2026-04-30 22:24 53.35888 -2.27844 211 ft 19 kts 185°
2026-04-30 22:25 53.35749 -2.27873 211 ft 20 kts 187°
2026-04-30 22:25 53.35606 -2.27895 211 ft 20 kts 186°
2026-04-30 22:25 53.35494 -2.27913 211 ft 1 kts 179°
2026-04-30 22:25 53.35464 -2.27900 211 ft 6 kts 191°
2026-04-30 22:26 53.35346 -2.28095 211 ft 12 kts 222°
2026-04-30 22:26 53.35292 -2.28186 211 ft 9 kts 228°
2026-04-30 22:26 53.35252 -2.28255 211 ft 7 kts 224°
2026-04-30 22:27 53.35197 -2.28357 211 ft 16 kts 226°
2026-04-30 22:27 53.35129 -2.28510 211 ft 17 kts 234°
2026-04-30 22:27 53.34954 -2.28751 211 ft 7 kts 138°
2026-04-30 22:28 53.34946 -2.28734 211 ft 0 kts 118°
2026-04-30 22:29 53.34907 -2.28662 211 ft 2 kts 135°
2026-04-30 22:29 53.34891 -2.28633 211 ft 7 kts 132°
2026-04-30 22:30 53.35695 -2.27281 450 ft 61 kts 43°
2026-04-30 22:31 53.36445 -2.25692 760 ft 79 kts 112°
2026-04-30 22:32 53.35028 -2.23738 1452 ft 90 kts 142°
2026-04-30 22:32 53.34056 -2.22563 1999 ft 84 kts 142°
2026-04-30 22:33 53.32344 -2.20359 2110 ft 121 kts 142°
2026-04-30 22:33 53.30819 -2.19067 2103 ft 134 kts 175°
2026-04-30 22:34 53.28003 -2.20401 2097 ft 143 kts 192°
2026-04-30 22:35 53.26119 -2.21473 2099 ft 144 kts 192°
2026-04-30 22:36 53.22337 -2.23140 2098 ft 135 kts 164°
2026-04-30 22:36 53.21445 -2.22739 2091 ft 134 kts 160°
2026-04-30 22:37 53.18767 -2.21373 2088 ft 133 kts 159°
2026-04-30 22:37 53.17881 -2.20922 2085 ft 134 kts 159°
2026-04-30 22:37 53.16108 -2.20013 2083 ft 134 kts 159°
2026-04-30 22:38 53.14333 -2.19100 2079 ft 134 kts 159°
2026-04-30 22:38 53.12518 -2.18391 2085 ft 134 kts 156°
2026-04-30 22:39 53.11758 -2.17532 2090 ft 133 kts 137°
2026-04-30 22:39 53.09935 -2.14069 2080 ft 132 kts 132°
2026-04-30 22:40 53.08109 -2.10569 2085 ft 134 kts 130°
2026-04-30 22:41 53.06118 -2.07462 2093 ft 133 kts 145°
2026-04-30 22:41 53.04537 -2.05696 2074 ft 139 kts 145°
2026-04-30 22:42 53.01276 -2.02119 2083 ft 142 kts 145°
2026-04-30 22:43 52.99668 -2.00284 2083 ft 142 kts 131°
2026-04-30 22:43 52.98465 -1.97696 2083 ft 142 kts 128°
2026-04-30 22:44 52.97200 -1.95168 2082 ft 141 kts 134°
2026-04-30 22:45 52.94377 -1.90672 2086 ft 140 kts 137°
2026-04-30 22:45 52.92925 -1.88478 2090 ft 141 kts 139°
2026-04-30 22:46 52.91443 -1.86353 2085 ft 141 kts 139°
2026-04-30 22:47 52.88477 -1.82057 2083 ft 141 kts 140°
2026-04-30 22:47 52.86989 -1.79913 2088 ft 142 kts 139°
2026-04-30 22:48 52.85493 -1.77769 2091 ft 142 kts 139°
2026-04-30 22:49 52.83274 -1.74560 2088 ft 141 kts 139°
2026-04-30 22:49 52.81161 -1.72535 2190 ft 114 kts 204°
2026-04-30 22:50 52.80069 -1.77823 1901 ft 126 kts 248°
2026-04-30 22:51 52.80958 -1.79338 2049 ft 86 kts 64°
2026-04-30 22:51 52.81313 -1.77331 1599 ft 97 kts 110°
2026-04-30 22:52 52.81095 -1.76257 1460 ft 99 kts 115°
2026-04-30 22:52 52.80557 -1.74090 1309 ft 93 kts 125°
2026-04-30 22:53 52.79355 -1.73238 1219 ft 90 kts 166°
2026-04-30 22:53 52.78695 -1.75002 1020 ft 124 kts 283°
2026-04-30 22:53 52.79047 -1.76208 1099 ft 114 kts 301°
2026-04-30 22:54 52.79956 -1.78327 976 ft 111 kts 306°
2026-04-30 22:55 52.81037 -1.78033 692 ft 71 kts 71°
2026-04-30 22:55 52.81395 -1.76535 428 ft 62 kts 72°
2026-04-30 22:56 52.81463 -1.76161 427 ft 0 kts 71°
2026-04-30 22:57 52.81512 -1.75890 428 ft 52 kts 70°
2026-04-30 22:57 52.81933 -1.74523 713 ft 78 kts 79°
2026-04-30 22:58 52.82092 -1.73117 1306 ft 65 kts 69°
2026-04-30 22:59 52.83322 -1.71729 1966 ft 60 kts 96°
2026-04-30 22:59 52.82389 -1.69664 2125 ft 109 kts 139°